Brookhaven, MS

5:24 PM CST on November 20, 2017 (GMT -0600)
Brookhaven

Weather History for K1R7 - April, 2013

Change the Weather History Date:

Saturday, April 27, 2013

  Actual Average (KMCB) Record (KMCB)
Temperature  
Mean Temperature 69 °F -  
Max Temperature 78 °F 79 °F 92 °F (1987)
Min Temperature 60 °F 55 °F 40 °F (1977)
Cooling Degree Days 4    
Growing Degree Days 19 (Base 50)    
Moisture  
Dew Point 65 °F    
Average Humidity 81    
Maximum Humidity 100    
Minimum Humidity 65    
Precipitation  
Precipitation 0.00 in - - ()
Sea Level Pressure  
Sea Level Pressure 30.13 in    
Wind  
Wind Speed 5 mph (South)    
Max Wind Speed 13 mph    
Max Gust Speed 21 mph    
Visibility 7 miles    
Events      
Averages and records for this station are not official NWS values.
T = Trace of Precipitation, MM = Missing Value Source: NWS Daily Summary

Daily Weather History Graph

Daily Weather History Graph

Search for Another Location

Airport or City:

Trip Planner

Search our weather history database for the weather conditions in past years. The results will help you decide how hot, cold, wet, or windy it might be!

Date:

Astronomy

Apr. 27, 2013 Rise Set
Actual Time 6:19 AM CDT 7:38 PM CDT
Civil Twilight 5:54 AM CDT 8:04 PM CDT
Nautical Twilight 5:23 AM CDT 8:35 PM CDT
Astronomical Twilight 4:52 AM CDT 9:07 PM CDT
Moon 10:01 PM CDT (4/27) 7:44 AM CDT (4/27)
Length of Visible Light 14h 10m
Length of Day
13h 19m
Waning Gibbous, 95% of the Moon is Illuminated
Apr 27
Waning Gibbous
May 2
Last Quarter
May 9
New
May 17
First Quarter
May 24
Full

Hourly Weather History & Observations

Time (CDT) Temp. Dew Point Humidity Pressure Visibility Wind Dir Wind Speed Gust Speed Precip Events Conditions
12:15 AM 64.4 °F 60.8 °F 88% 30.19 in 10.0 mi SE 8.1 mph - N/A   Partly Cloudy
12:35 AM 64.4 °F 60.8 °F 88% 30.18 in 10.0 mi SE 9.2 mph - N/A   Clear
12:55 AM 64.4 °F 60.8 °F 88% 30.20 in 10.0 mi SSW 4.6 mph - N/A   Partly Cloudy
1:15 AM 64.4 °F 60.8 °F 88% 30.19 in 10.0 mi South 5.8 mph - N/A   Partly Cloudy
1:35 AM 64.4 °F 60.8 °F 88% 30.17 in 10.0 mi SSE 6.9 mph - N/A   Clear
1:55 AM 62.6 °F 60.8 °F 94% 30.17 in 10.0 mi SSE 6.9 mph - N/A   Clear
2:15 AM 62.6 °F 60.8 °F 94% 30.17 in 10.0 mi Calm Calm - N/A   Clear
2:35 AM 62.6 °F 60.8 °F 94% 30.18 in 8.0 mi Calm Calm - N/A   Clear
2:55 AM 62.6 °F 60.8 °F 94% 30.18 in 5.0 mi Calm Calm - N/A   Clear
3:15 AM 60.8 °F 60.8 °F 100% 30.17 in 6.0 mi Calm Calm - N/A   Mostly Cloudy
3:35 AM 62.6 °F 60.8 °F 94% 30.17 in 6.0 mi Calm Calm - N/A   Overcast
3:55 AM 62.6 °F 62.6 °F 100% 30.17 in 5.0 mi Calm Calm - N/A   Overcast
4:15 AM 62.6 °F 62.6 °F 100% 30.16 in 2.0 mi SSE 4.6 mph - N/A   Overcast
4:35 AM 64.4 °F 62.6 °F 94% 30.17 in 1.5 mi South 4.6 mph - N/A   Overcast
4:55 AM 64.4 °F 62.6 °F 94% 30.17 in 1.8 mi South 4.6 mph - N/A   Overcast
5:15 AM 64.4 °F 64.4 °F 100% 30.16 in 1.5 mi SSE 4.6 mph - N/A   Overcast
6:35 AM 64.4 °F 62.6 °F 94% 30.17 in 1.8 mi Calm Calm - N/A   Overcast
6:55 AM 62.6 °F 62.6 °F 100% 30.18 in 2.0 mi South 3.5 mph - N/A   Overcast
7:15 AM 64.4 °F 62.6 °F 94% 30.19 in 2.0 mi South 3.5 mph - N/A   Overcast
7:35 AM 64.4 °F 62.6 °F 94% 30.19 in 2.5 mi Calm Calm - N/A   Overcast
7:55 AM 64.4 °F 62.6 °F 94% 30.20 in 3.0 mi Calm Calm - N/A   Overcast
8:15 AM 64.4 °F 64.4 °F 100% 30.20 in 3.0 mi South 3.5 mph - N/A   Overcast
8:35 AM 66.2 °F 64.4 °F 94% 30.19 in 4.0 mi SSE 8.1 mph - N/A   Mostly Cloudy
8:55 AM 68.0 °F 64.4 °F 88% 30.19 in 5.0 mi SSE 3.5 mph - N/A   Partly Cloudy
9:15 AM 69.8 °F 66.2 °F 88% 30.19 in 6.0 mi Calm Calm - N/A   Clear
9:35 AM 71.6 °F 66.2 °F 83% 30.19 in 8.0 mi South 5.8 mph - N/A   Clear
9:55 AM 73.4 °F 66.2 °F 78% 30.18 in 7.0 mi SW 4.6 mph - N/A   Clear
10:15 AM 75.2 °F 66.2 °F 73% 30.17 in 8.0 mi South 9.2 mph - N/A   Clear
10:35 AM 75.2 °F 66.2 °F 73% 30.17 in 8.0 mi South 10.4 mph - N/A   Partly Cloudy
10:55 AM 75.2 °F 66.2 °F 73% 30.16 in 9.0 mi South 10.4 mph 18.4 mph N/A   Partly Cloudy
11:15 AM 77.0 °F 66.2 °F 69% 30.16 in 9.0 mi South 10.4 mph 16.1 mph N/A   Clear
11:35 AM 78.8 °F 66.2 °F 65% 30.15 in 9.0 mi South 12.7 mph 18.4 mph N/A   Partly Cloudy
11:55 AM 78.8 °F 66.2 °F 65% 30.16 in 8.0 mi SSW 10.4 mph 16.1 mph N/A   Partly Cloudy
12:15 PM 78.8 °F 66.2 °F 65% 30.15 in 10.0 mi South 11.5 mph - N/A   Partly Cloudy
12:35 PM 78.8 °F 66.2 °F 65% 30.16 in 8.0 mi South 11.5 mph 20.7 mph N/A   Scattered Clouds
12:55 PM 77.0 °F 66.2 °F 69% 30.15 in 8.0 mi SSW 10.4 mph 16.1 mph N/A   Mostly Cloudy
1:15 PM 78.8 °F 66.2 °F 65% 30.14 in 8.0 mi South 10.4 mph - N/A   Scattered Clouds
1:35 PM 78.8 °F 66.2 °F 65% 30.13 in 8.0 mi SSE 9.2 mph 19.6 mph N/A   Partly Cloudy
1:55 PM 77.0 °F 66.2 °F 69% 30.13 in 8.0 mi SSE 11.5 mph - N/A   Scattered Clouds
2:15 PM 78.8 °F 66.2 °F 65% 30.13 in 10.0 mi South 10.4 mph 17.3 mph N/A   Scattered Clouds
2:35 PM 77.0 °F 66.2 °F 69% 30.12 in 8.0 mi SSE 6.9 mph - N/A   Mostly Cloudy
2:55 PM 78.8 °F 66.2 °F 65% 30.11 in 9.0 mi SSE 9.2 mph - N/A   Scattered Clouds
3:15 PM 78.8 °F 66.2 °F 65% 30.10 in 8.0 mi South 10.4 mph - N/A   Partly Cloudy
3:35 PM 78.8 °F 66.2 °F 65% 30.10 in 9.0 mi South 6.9 mph - N/A   Partly Cloudy
3:55 PM 77.0 °F 66.2 °F 69% 30.10 in 9.0 mi South 6.9 mph - N/A   Clear
4:15 PM 77.0 °F 66.2 °F 69% 30.08 in 7.0 mi South 8.1 mph - N/A   Clear
4:35 PM 75.2 °F 66.2 °F 73% 30.07 in 7.0 mi SSE 4.6 mph - N/A   Clear
4:55 PM 75.2 °F 66.2 °F 73% 30.06 in 10.0 mi SSE 5.8 mph - N/A   Clear
5:15 PM 77.0 °F 66.2 °F 69% 30.06 in 7.0 mi SSE 3.5 mph - N/A   Clear
5:35 PM 77.0 °F 66.2 °F 69% 30.05 in 9.0 mi Calm Calm - N/A   Clear
5:55 PM 77.0 °F 66.2 °F 69% 30.05 in 7.0 mi Calm Calm - N/A   Clear
6:15 PM 78.8 °F 66.2 °F 65% 30.05 in 9.0 mi SSW 6.9 mph - N/A   Clear
6:35 PM 78.8 °F 66.2 °F 65% 30.05 in 9.0 mi South 5.8 mph - N/A   Clear
6:55 PM 77.0 °F 66.2 °F 69% 30.04 in 9.0 mi South 4.6 mph - N/A   Clear
7:15 PM 75.2 °F 66.2 °F 73% 30.04 in 8.0 mi South 3.5 mph - N/A   Clear
7:35 PM 73.4 °F 66.2 °F 78% 30.04 in 8.0 mi Calm Calm - N/A   Clear
7:55 PM 73.4 °F 66.2 °F 78% 30.04 in 8.0 mi Calm Calm - N/A   Partly Cloudy
8:15 PM 71.6 °F 68.0 °F 88% 30.03 in 9.0 mi SSE 3.5 mph - N/A   Scattered Clouds
8:35 PM 71.6 °F 66.2 °F 83% 30.03 in 9.0 mi Calm Calm - N/A   Scattered Clouds
8:55 PM 71.6 °F 66.2 °F 83% 30.05 in 8.0 mi Calm Calm - N/A   Partly Cloudy
9:15 PM 69.8 °F 66.2 °F 88% 30.06 in 9.0 mi Calm Calm - N/A   Partly Cloudy
9:55 PM 69.8 °F 66.2 °F 88% 30.05 in 8.0 mi South 3.5 mph - N/A   Clear
10:15 PM 69.8 °F 66.2 °F 88% 30.05 in 9.0 mi Calm Calm - N/A   Clear
10:35 PM 69.8 °F 66.2 °F 88% 30.06 in 8.0 mi Calm Calm - N/A   Clear
11:15 PM 68.0 °F 66.2 °F 94% 30.08 in 6.0 mi Calm Calm - N/A   Scattered Clouds
11:35 PM 69.8 °F 66.2 °F 88% 30.08 in 7.0 mi South 3.5 mph - N/A   Mostly Cloudy
11:55 PM 69.8 °F 66.2 °F 88% 30.08 in 8.0 mi SSW 4.6 mph - N/A   Mostly Cloudy